Weather History for West Plains, MO

Change the Weather History Date:

Thursday, July 11, 2013

  Actual Average Record
Temperature  
Mean Temperature 77 °F 78 °F  
Max Temperature 89 °F 89 °F 103 °F (1980)
Min Temperature 64 °F 67 °F 51 °F (1953)
Degree Days  
Heating Degree Days 0 0  
Month to date heating degree days 0 0  
Since 1 June heating degree days 9 5  
Since 1 July heating degree days 0 0  
Cooling Degree Days 12 13  
Month to date cooling degree days 103 139  
Year to date cooling degree days 363 527  
Since 1 June cooling degree days 251 405  
Growing Degree Days 29 (Base 50)    
Moisture  
Dew Point 65 °F    
Average Humidity 63    
Maximum Humidity 93    
Minimum Humidity 32    
Precipitation  
Precipitation 0.00 in 0.14 in 2.16 in (1978)
Month to date precipitation 0.00 1.29  
Year to date precipitation 25.49 24.58  
Sea Level Pressure  
Sea Level Pressure 30.00 in    
Wind  
Wind Speed 7 mph (NE)    
Max Wind Speed 14 mph    
Max Gust Speed 18 mph    
Visibility 10 miles    
Events      
T = Trace of Precipitation, MM = Missing Value Source: NWS Daily Summary

Daily Weather History Graph

Daily Weather History Graph

Search for Another Location

Airport:

Trip Planner

Search our weather history database for the weather conditions in past years. The results will help you decide how hot, cold, wet, or windy it might be!

Date:

Astronomy

Jul. 11, 2013 Rise Set
Actual Time 5:57 AM CDT 8:28 PM CDT
Civil Twilight 5:27 AM CDT 8:58 PM CDT
Nautical Twilight 4:50 AM CDT 9:35 PM CDT
Astronomical Twilight 4:08 AM CDT 10:17 PM CDT
Moon 9:10 AM CDT (7/11) 10:15 PM CDT (7/11)
Length of Visible Light 15h 31m
Length of Day
14h 30m
Waxing Crescent, 11% of the Moon is Illuminated
Jul 11
Waxing Crescent
Jul 15
First Quarter
Jul 22
Full
Jul 29
Last Quarter
Aug 6
New

Hourly Weather History & Observations

Time (CDT) Temp. Heat Index Dew Point Humidity Pressure Visibility Wind Dir Wind Speed Gust Speed Precip Events Conditions
12:53 AM 75.9 °F - 72.0 °F 87% 29.98 in 10.0 mi NNE 5.8 mph - N/A   Partly Cloudy
1:53 AM 75.0 °F - 72.0 °F 90% 29.97 in 10.0 mi NNE 4.6 mph - N/A   Clear
2:53 AM 73.9 °F - 72.0 °F 93% 29.99 in 10.0 mi NNE 3.5 mph - N/A   Clear
3:53 AM 73.0 °F - 71.1 °F 93% 29.97 in 10.0 mi NE 3.5 mph - N/A   Clear
4:53 AM 73.0 °F - 71.1 °F 93% 29.98 in 8.0 mi NNE 4.6 mph - N/A   Clear
5:53 AM 72.0 °F - 70.0 °F 93% 29.99 in 9.0 mi NNE 8.1 mph - N/A   Clear
6:53 AM 72.0 °F - 69.1 °F 91% 30.00 in 10.0 mi NNE 8.1 mph - N/A   Clear
7:53 AM 73.9 °F - 68.0 °F 82% 30.01 in 10.0 mi NE 8.1 mph - N/A   Clear
8:53 AM 78.1 °F - 68.0 °F 71% 30.02 in 10.0 mi NE 8.1 mph - N/A   Clear
9:53 AM 81.0 °F 83.8 °F 68.0 °F 65% 30.01 in 10.0 mi NNE 9.2 mph - N/A   Clear
10:53 AM 82.9 °F 85.8 °F 68.0 °F 60% 30.02 in 10.0 mi ENE 6.9 mph - N/A   Clear
11:53 AM 84.9 °F 87.6 °F 66.9 °F 55% 30.02 in 10.0 mi NE 11.5 mph - N/A   Clear
12:53 PM 87.1 °F 88.3 °F 64.0 °F 46% 30.01 in - North - - N/A   Partly Cloudy
1:53 PM 89.1 °F 88.8 °F 60.1 °F 38% 30.01 in - North 8.1 mph - 0.16 in   Unknown
2:53 PM 89.1 °F 87.3 °F 55.9 °F 32% 30.01 in 10.0 mi North 9.2 mph 16.1 mph N/A   Clear
3:53 PM 88.0 °F 86.1 °F 55.0 °F 32% 30.00 in 10.0 mi North 9.2 mph 16.1 mph N/A   Clear
4:53 PM 88.0 °F 86.7 °F 57.0 °F 35% 30.00 in 10.0 mi North 8.1 mph - N/A   Clear
5:53 PM 86.0 °F 85.4 °F 59.0 °F 40% 29.98 in 10.0 mi NE 6.9 mph - N/A   Partly Cloudy
6:53 PM 82.9 °F 83.3 °F 61.0 °F 47% 29.97 in 10.0 mi NNE 9.2 mph - N/A   Clear
7:53 PM 79.0 °F - 59.0 °F 50% 29.98 in 10.0 mi NE 4.6 mph - N/A   Clear
8:53 PM 73.0 °F - 61.0 °F 66% 29.99 in 10.0 mi NE 5.8 mph - N/A   Clear
9:53 PM 70.0 °F - 61.0 °F 73% 30.02 in 10.0 mi ENE 6.9 mph - N/A   Clear
10:53 PM 69.1 °F - 60.1 °F 73% 30.03 in 10.0 mi NE 4.6 mph - N/A   Clear
11:53 PM 66.0 °F - 60.1 °F 81% 30.04 in 10.0 mi ENE 3.5 mph - N/A   Clear